Time,TemperatureF,DewpointF,PressureIn,WindDirection,WindDirectionDegrees,WindSpeedMPH,WindSpeedGustMPH,Humidity,HourlyPrecipIn,Conditions,Clouds,dailyrainin,SoftwareType,DateUTC
2013-07-09 00:02:00,67.0,65.0,30.05,NNE,17,0.0,1.0,92,0.00,,,1.04,,2013-07-09 04:02:00,
2013-07-09 00:11:00,67.0,65.0,30.05,NNE,17,0.0,1.0,92,0.00,,,1.04,,2013-07-09 04:11:00,
2013-07-09 00:22:00,67.0,64.0,30.06,North,0,0.0,0.0,91,0.00,,,1.04,,2013-07-09 04:22:00,
2013-07-09 00:43:00,67.0,65.0,30.05,North,0,0.0,0.0,92,0.00,,,1.04,,2013-07-09 04:43:00,
2013-07-09 00:53:00,67.0,65.0,30.05,North,0,0.0,0.0,92,0.00,,,1.04,,2013-07-09 04:53:00,
2013-07-09 01:02:00,66.0,64.0,30.04,North,0,0.0,0.0,92,0.00,,,1.04,,2013-07-09 05:02:00,
2013-07-09 01:12:00,66.0,64.0,30.04,NNE,17,0.0,2.0,92,0.00,,,1.04,,2013-07-09 05:12:00,
2013-07-09 01:22:00,66.0,64.0,30.04,NNE,17,0.0,2.0,92,0.00,,,1.04,,2013-07-09 05:22:00,
2013-07-09 01:42:00,66.0,64.0,30.04,NNE,17,0.0,1.0,92,0.00,,,1.04,,2013-07-09 05:42:00,
2013-07-09 02:01:00,66.0,64.0,30.04,NNE,17,0.0,2.0,92,0.00,,,1.04,,2013-07-09 06:01:00,
2013-07-09 02:11:00,66.0,64.0,30.04,North,0,0.0,0.0,92,0.00,,,1.04,,2013-07-09 06:11:00,
2013-07-09 02:22:00,66.0,64.0,30.04,North,0,0.0,0.0,92,0.00,,,1.04,,2013-07-09 06:22:00,
2013-07-09 02:34:00,66.0,64.0,30.04,North,0,0.0,0.0,92,0.00,,,1.04,,2013-07-09 06:34:00,
2013-07-09 02:43:00,66.0,64.0,30.03,NNE,17,0.0,1.0,92,0.00,,,1.04,,2013-07-09 06:43:00,
2013-07-09 03:02:00,66.0,64.0,30.04,NNE,17,0.0,1.0,92,0.00,,,1.04,,2013-07-09 07:02:00,
2013-07-09 03:12:00,66.0,64.0,30.04,NNE,17,0.0,1.0,92,0.00,,,1.04,,2013-07-09 07:12:00,
2013-07-09 03:34:00,66.0,64.0,30.04,North,0,0.0,0.0,92,0.00,,,1.04,,2013-07-09 07:34:00,
2013-07-09 04:01:00,66.0,64.0,30.04,NNE,17,0.0,1.0,92,0.00,,,1.04,,2013-07-09 08:01:00,
2013-07-09 04:11:00,65.0,63.0,30.04,North,0,0.0,0.0,92,0.00,,,1.04,,2013-07-09 08:11:00,
2013-07-09 04:22:00,65.0,63.0,30.04,North,0,0.0,0.0,92,0.00,,,1.04,,2013-07-09 08:22:00,
2013-07-09 04:43:00,65.0,63.0,30.04,North,0,0.0,0.0,92,0.00,,,1.04,,2013-07-09 08:43:00,
2013-07-09 04:52:00,65.0,63.0,30.04,North,0,0.0,0.0,92,0.00,,,1.04,,2013-07-09 08:52:00,
2013-07-09 05:02:00,65.0,63.0,30.04,North,0,0.0,0.0,92,0.00,,,1.04,,2013-07-09 09:02:00,
2013-07-09 05:12:00,65.0,63.0,30.05,North,0,0.0,0.0,92,0.00,,,1.04,,2013-07-09 09:12:00,
2013-07-09 05:22:00,65.0,63.0,30.05,North,0,0.0,0.0,92,0.00,,,1.04,,2013-07-09 09:22:00,
2013-07-09 05:42:00,65.0,63.0,30.06,North,0,0.0,0.0,92,0.00,,,1.04,,2013-07-09 09:42:00,
2013-07-09 05:53:00,65.0,63.0,30.06,North,0,0.0,0.0,92,0.00,,,1.04,,2013-07-09 09:53:00,
2013-07-09 06:02:00,65.0,63.0,30.06,North,0,0.0,0.0,92,0.00,,,1.04,,2013-07-09 10:02:00,
2013-07-09 06:11:00,65.0,63.0,30.06,North,0,0.0,0.0,92,0.00,,,1.04,,2013-07-09 10:11:00,
2013-07-09 06:22:00,65.0,63.0,30.06,North,0,0.0,0.0,92,0.00,,,1.04,,2013-07-09 10:22:00,
2013-07-09 06:34:00,65.0,63.0,30.06,North,0,0.0,0.0,92,0.00,,,1.04,,2013-07-09 10:34:00,
2013-07-09 06:42:00,65.0,63.0,30.07,North,0,0.0,0.0,92,0.00,,,1.04,,2013-07-09 10:42:00,
2013-07-09 06:52:00,65.0,63.0,30.07,North,0,0.0,0.0,92,0.00,,,1.04,,2013-07-09 10:52:00,
2013-07-09 07:02:00,66.0,64.0,30.08,NNE,17,0.0,1.0,92,0.00,,,1.04,,2013-07-09 11:02:00,
2013-07-09 07:11:00,66.0,64.0,30.08,NNE,17,0.0,1.0,92,0.00,,,1.04,,2013-07-09 11:11:00,
2013-07-09 07:22:00,66.0,64.0,30.08,NNE,17,0.0,1.0,92,0.00,,,1.04,,2013-07-09 11:22:00,
2013-07-09 07:34:00,66.0,64.0,30.09,NNE,17,0.0,1.0,92,0.00,,,1.04,,2013-07-09 11:34:00,
2013-07-09 07:42:00,66.0,64.0,30.09,NNE,17,0.0,1.0,92,0.00,,,1.04,,2013-07-09 11:42:00,
2013-07-09 07:53:00,66.0,64.0,30.09,NNE,17,0.0,1.0,92,0.00,,,1.04,,2013-07-09 11:53:00,
2013-07-09 08:02:00,66.0,64.0,30.09,NNE,17,0.0,1.0,92,0.00,,,1.04,,2013-07-09 12:02:00,
2013-07-09 08:12:00,66.0,64.0,30.09,NNE,17,0.0,2.0,92,0.00,,,1.04,,2013-07-09 12:12:00,
2013-07-09 08:33:00,66.0,64.0,30.09,NNE,18,0.0,1.0,92,0.00,,,1.04,,2013-07-09 12:33:00,
2013-07-09 08:43:00,66.0,64.0,30.09,NNE,18,0.0,1.0,92,0.00,,,1.04,,2013-07-09 12:43:00,
2013-07-09 08:53:00,66.0,64.0,30.09,NNE,18,0.0,1.0,92,0.00,,,1.04,,2013-07-09 12:53:00,
2013-07-09 09:11:00,66.0,64.0,30.09,North,0,0.0,0.0,92,0.00,,,1.04,,2013-07-09 13:11:00,
2013-07-09 09:22:00,67.0,65.0,30.09,North,0,0.0,0.0,92,0.00,,,1.04,,2013-07-09 13:22:00,
2013-07-09 09:33:00,67.0,65.0,30.09,North,0,0.0,0.0,92,0.00,,,1.04,,2013-07-09 13:33:00,
2013-07-09 09:43:00,67.0,65.0,30.09,North,0,0.0,0.0,92,0.00,,,1.04,,2013-07-09 13:43:00,
2013-07-09 09:53:00,67.0,65.0,30.09,North,0,0.0,0.0,92,0.00,,,1.04,,2013-07-09 13:53:00,
2013-07-09 18:42:00,71.0,67.0,30.05,NE,50,0.0,2.0,88,0.00,,,0.00,,2013-07-09 22:42:00,
2013-07-09 18:53:00,71.0,67.0,30.05,NE,50,0.0,2.0,88,0.00,,,0.00,,2013-07-09 22:53:00,
2013-07-09 19:02:00,71.0,67.0,30.04,North,3,0.0,3.0,88,0.00,,,0.00,,2013-07-09 23:02:00,
2013-07-09 19:12:00,71.0,67.0,30.04,North,3,0.0,3.0,88,0.00,,,0.00,,2013-07-09 23:12:00,
2013-07-09 19:33:00,71.0,68.0,30.04,NE,46,0.0,1.0,89,0.00,,,0.00,,2013-07-09 23:33:00,
2013-07-09 19:43:00,70.0,67.0,30.04,North,0,0.0,0.0,89,0.00,,,0.00,,2013-07-09 23:43:00,
2013-07-09 19:53:00,70.0,67.0,30.04,North,0,0.0,0.0,89,0.00,,,0.00,,2013-07-09 23:53:00,
2013-07-09 20:01:00,70.0,67.0,30.04,North,0,0.0,0.0,89,0.00,,,0.00,,2013-07-10 00:01:00,
2013-07-09 20:11:00,70.0,67.0,30.04,North,0,0.0,0.0,89,0.00,,,0.00,,2013-07-10 00:11:00,
2013-07-09 20:22:00,70.0,67.0,30.04,North,0,0.0,0.0,89,0.00,,,0.00,,2013-07-10 00:22:00,
2013-07-09 20:33:00,70.0,67.0,30.06,North,0,0.0,0.0,90,0.00,,,0.00,,2013-07-10 00:33:00,
2013-07-09 20:43:00,70.0,67.0,30.06,North,0,0.0,0.0,90,0.00,,,0.00,,2013-07-10 00:43:00,
2013-07-09 20:52:00,70.0,67.0,30.06,North,0,0.0,0.0,90,0.00,,,0.00,,2013-07-10 00:52:00,
2013-07-09 21:01:00,70.0,67.0,30.06,North,0,0.0,0.0,90,0.00,,,0.00,,2013-07-10 01:01:00,
2013-07-09 21:11:00,70.0,67.0,30.05,North,0,0.0,0.0,90,0.00,,,0.00,,2013-07-10 01:11:00,
2013-07-09 21:22:00,70.0,67.0,30.05,North,0,0.0,0.0,90,0.00,,,0.00,,2013-07-10 01:22:00,
2013-07-09 21:43:00,69.0,66.0,30.05,ENE,62,0.0,1.0,90,0.00,,,0.00,,2013-07-10 01:43:00,
2013-07-09 21:53:00,69.0,66.0,30.05,ENE,62,0.0,1.0,90,0.00,,,0.00,,2013-07-10 01:53:00,
2013-07-09 22:02:00,69.0,66.0,30.05,ENE,62,0.0,1.0,90,0.00,,,0.00,,2013-07-10 02:02:00,
2013-07-09 22:11:00,69.0,66.0,30.05,ENE,62,0.0,1.0,90,0.00,,,0.00,,2013-07-10 02:11:00,
2013-07-09 22:34:00,69.0,66.0,30.06,North,10,0.0,1.0,89,0.00,,,0.00,,2013-07-10 02:34:00,
2013-07-09 22:43:00,69.0,66.0,30.06,SE,138,0.0,3.0,89,0.00,,,0.00,,2013-07-10 02:43:00,
2013-07-09 22:53:00,69.0,66.0,30.06,SE,138,0.0,3.0,89,0.00,,,0.00,,2013-07-10 02:53:00,
2013-07-09 23:01:00,69.0,66.0,30.06,North,0,0.0,0.0,89,0.00,,,0.00,,2013-07-10 03:01:00,
2013-07-09 23:12:00,69.0,66.0,30.06,North,0,0.0,0.0,89,0.00,,,0.00,,2013-07-10 03:12:00,
2013-07-09 23:22:00,69.0,66.0,30.06,North,0,0.0,0.0,89,0.00,,,0.00,,2013-07-10 03:22:00,
2013-07-09 23:43:00,69.0,66.0,30.06,North,0,0.0,0.0,89,0.00,,,0.00,,2013-07-10 03:43:00,